sat.trackr.live / text

‹ back to catalog

STARLINK-30128

NORAD 56832 · 2023-079K

PAYLOAD ACTIVE UNKNOWN

§ Identity

Operator
Country
US
Launch date
2023-06-04
Launch site
AFETR
Launch vehicle
Mass (kg)
RCS (m²)

Purposes: comms

External: N2YO · Heavens-Above · Gunter

§ Orbital elements

Epoch: 2026-05-25T00:16:54.255648Z

Period
94.27 min
Inclination
43.0035°
Eccentricity
0.0000764
Mean motion
15.27582186 rev/d
Perigee alt
482.5 km
Apogee alt
483.6 km
Semi-major
6,861.2 km
B*
2.8322e-5
RAAN
10.2072°
Arg perigee
251.9162°
Mean anomaly
108.1606°
Rev number
15,845

§ Raw data

STARLINK-301281 56832U 23079K   26145.01173907  .00000518  00000+0  28322-4 0  99952 56832  43.0035  10.2072 0000764 251.9162 108.1606 15.27582186158456

JSON: /api/v1/satellites/56832 · /tle

For live sub-satellite position, see the globe view (requires WebGL).

§ Visibility from observer

Set your observer location to see the next 7 days of passes ≥ 10°. The values pass through the URL so the page stays shareable.

No JS? Fill the form by hand. The geolocation button needs JavaScript.